Location: Chuathbaluk
(61.5726°N, 159.2454°W)
Time: 08:16:26
(UTC+00:00)

NUDT-PHONESAT - Pass Details

Date: 25 January 2021
Orbit: 479 x 498 km, 97.4° (Epoch: 08 March)

Event Time Altitude Azimuth Distance (km) Brightness Sun altitude
Rises 18:01:12 0° 15° (NNE) 2,613 ? -8.3°
Reaches altitude 10° 18:03:18 10° 14° (NNE) 1,724 ? -8.1°
Maximum altitude 18:07:00 72° 290° (WNW) 535 ? -7.7°
Drops below altitude 10° 18:10:40 10° 206° (SSW) 1,707 ? -7.3°
Sets 18:12:44 0° 205° (SSW) 2,584 ? -7.0°
